sat.trackr.live / text

‹ back to catalog

STARLINK-5689

NORAD 55474 · 2023-015AB

PAYLOAD ACTIVE UNKNOWN

§ Identity

Operator
Country
US
Launch date
2023-02-02
Launch site
AFETR
Launch vehicle
Mass (kg)
RCS (m²)

Purposes: comms

External: N2YO · Heavens-Above · Gunter

§ Orbital elements

Epoch: 2026-05-24T14:50:05.611200Z

Period
94.27 min
Inclination
43.0037°
Eccentricity
0.0001484
Mean motion
15.27575741 rev/d
Perigee alt
482.0 km
Apogee alt
484.1 km
Semi-major
6,861.2 km
B*
-7.6878e-5
RAAN
271.2607°
Arg perigee
268.4810°
Mean anomaly
91.5872°
Rev number
18,220

§ Raw data

STARLINK-56891 55474U 23015AB  26144.61812050 -.00002377  00000+0 -76878-4 0  99962 55474  43.0037 271.2607 0001484 268.4810  91.5872 15.27575741182204

JSON: /api/v1/satellites/55474 · /tle

For live sub-satellite position, see the globe view (requires WebGL).

§ Visibility from observer

Set your observer location to see the next 7 days of passes ≥ 10°. The values pass through the URL so the page stays shareable.

No JS? Fill the form by hand. The geolocation button needs JavaScript.